Waarnemingen

Advertentie
Mijn weer
Spa/La Sauveniere, België (6490): temperatuur & dauwpunt: 08.08.2018 17:00:00 - 14.08.2018 17:00:00 (CEST)Spa/La Sauveniere, België (6490): windsnelheid & windstoten: 08.08.2018 17:00:00 - 14.08.2018 17:00:00 (CEST)Spa/La Sauveniere, België (6490): windrichting: 08.08.2018 17:00:00 - 14.08.2018 17:00:00 (CEST)Spa/La Sauveniere, België (6490): luchtdruk: 08.08.2018 17:00:00 - 14.08.2018 17:00:00 (CEST)Spa/La Sauveniere, België (6490): zicht: 08.08.2018 17:00:00 - 14.08.2018 17:00:00 (CEST)
Datum & Tijd tt [°C] td [°C] ff [km/u] ff [kn] fx [km/u] fx [kn] dd ppp [hPa] vv [km]
14.08.2018 17:00:00 16,5 14,4 11 6 - - N 1017,5 -
14.08.2018 16:00:00 17,8 13,6 11 6 22 12 W 1016,8 13
14.08.2018 15:00:00 18,3 14,3 14 8 25 14 W 1016,3 15
14.08.2018 14:00:00 17,8 15,5 11 6 - - WZW 1016,2 -
14.08.2018 13:00:00 16,2 13,7 11 6 22 12 W 1016,2 -
14.08.2018 12:00:00 15,3 13,9 11 6 22 12 W 1016,0 4,7
14.08.2018 11:00:00 14,7 13,6 11 6 - - W 1015,7 3,7
14.08.2018 10:00:00 14,3 14,3 14 8 25 14 W 1015,2 3,1
14.08.2018 09:00:00 13,7 12,6 11 6 25 14 W 1014,7 0,5
14.08.2018 08:00:00 13,4 12,3 11 6 - - W 1014,0 -
14.08.2018 07:00:00 13,5 12,3 14 8 18 10 WZW 1013,3 1,1
14.08.2018 06:00:00 13,4 12,2 11 6 22 12 WZW 1012,9 3,7
14.08.2018 05:00:00 13,4 12,3 11 6 - - WZW 1012,7 3,5
14.08.2018 04:00:00 13,7 12,2 11 6 22 12 WZW 1012,3 9
14.08.2018 03:00:00 13,9 12,6 11 6 22 12 WZW 1012,1 11
14.08.2018 02:00:00 14,2 12,8 14 8 - - WZW 1012,0 -
14.08.2018 01:00:00 14,5 13,1 14 8 25 14 WZW 1011,4 -
14.08.2018 00:00:00 14,5 12,8 18 10 25 14 W 1010,9 7
13.08.2018 23:00:00 15,0 13,4 11 6 - - ZW 1010,3 35
13.08.2018 22:00:00 14,9 11,7 11 6 22 12 WZW 1010,2 35
13.08.2018 21:00:00 15,3 14,1 11 6 18 10 ZW 1009,4 40
13.08.2018 20:00:00 15,7 13,0 11 6 - - WZW 1009,0 40
13.08.2018 19:00:00 16,0 13,3 14 8 25 14 WZW 1008,7 45
13.08.2018 18:00:00 15,6 12,7 11 6 25 14 WZW 1008,8 14
13.08.2018 17:00:00 16,6 13,7 11 6 - - WZW 1008,2 35
13.08.2018 16:00:00 15,1 13,7 18 10 36 19 WZW 1008,7 10
13.08.2018 15:00:00 16,7 14,5 22 12 40 21 ZW 1008,1 35
13.08.2018 14:00:00 15,0 12,6 22 12 - - WZW 1008,7 5
13.08.2018 13:00:00 15,7 13,2 18 10 29 16 ZW 1008,1 5
13.08.2018 12:00:00 17,3 14,5 14 8 29 16 Z 1007,7 35
13.08.2018 11:00:00 16,0 12,8 14 8 - - Z 1008,0 30
13.08.2018 10:00:00 15,3 13,7 14 8 36 19 Z 1008,3 30
13.08.2018 09:00:00 14,7 11,3 18 10 29 16 ZZO 1008,2 40
13.08.2018 08:00:00 14,7 11,1 22 12 - - ZZO 1007,3 45
13.08.2018 07:00:00 14,5 9,4 14 8 22 12 ZZO 1008,2 10
13.08.2018 06:00:00 15,1 8,9 11 6 18 10 W 1009,2 40
13.08.2018 05:00:00 15,5 8,6 4 2 - - - 1008,2 35
13.08.2018 04:00:00 18,4 6,9 22 12 29 16 ZZO 1007,5 45
13.08.2018 03:00:00 18,2 6,8 22 12 29 16 ZO 1008,1 50
13.08.2018 02:00:00 18,3 6,5 22 12 - - ZZO 1008,9 45
13.08.2018 01:00:00 19,1 6,8 22 12 29 16 ZZO 1009,3 45
13.08.2018 00:00:00 18,5 6,2 18 10 22 12 ZZO 1010,1 50
12.08.2018 23:00:00 18,4 5,6 14 8 - - ZZO 1010,5 45
12.08.2018 22:00:00 17,1 4,2 11 6 14 8 ZO 1011,5 45
12.08.2018 21:00:00 19,3 4,1 7 4 18 10 ZZW 1011,3 35
12.08.2018 20:00:00 23,0 5,6 11 6 - - Z 1010,7 40
12.08.2018 19:00:00 23,6 5,6 11 6 25 14 ZZW 1011,1 35
12.08.2018 18:00:00 23,0 5,8 14 8 25 14 ZZW 1012,1 40
12.08.2018 17:00:00 23,1 5,8 14 8 - - Z 1012,5 40
12.08.2018 16:00:00 23,4 7,2 14 8 36 19 Z 1013,2 30
12.08.2018 15:00:00 23,0 7,8 14 8 36 19 ZZW 1013,9 30
12.08.2018 14:00:00 21,7 6,8 14 8 - - ZZW 1014,9 40
12.08.2018 13:00:00 21,1 7,1 11 6 25 14 ZZW 1015,8 40
12.08.2018 12:00:00 19,9 8,0 14 8 25 14 ZZW 1016,5 40
12.08.2018 11:00:00 18,5 8,1 18 10 - - Z 1017,3 35
12.08.2018 10:00:00 17,6 8,3 14 8 25 14 Z 1017,6 40
12.08.2018 09:00:00 15,4 7,8 14 8 25 14 Z 1018,2 45
12.08.2018 08:00:00 13,7 6,4 18 10 - - ZZO 1018,7 40
12.08.2018 07:00:00 12,7 5,6 18 10 22 12 ZZO 1019,1 45
12.08.2018 06:00:00 12,2 5,4 14 8 22 12 ZZO 1019,5 45
12.08.2018 05:00:00 12,0 5,5 18 10 - - ZZO 1020,2 45
12.08.2018 04:00:00 11,0 4,9 14 8 18 10 ZZO 1021,1 50
12.08.2018 03:00:00 11,0 4,2 14 8 18 10 ZZO 1021,5 45
12.08.2018 02:00:00 11,1 4,4 11 6 - - Z 1022,0 45
12.08.2018 01:00:00 11,7 4,2 7 4 11 6 Z 1022,4 50
12.08.2018 00:00:00 11,6 3,3 7 4 7 4 ZZW 1022,7 45
11.08.2018 23:00:00 13,7 3,7 7 4 - - ZZW 1022,8 45
11.08.2018 22:00:00 13,2 2,6 7 4 7 4 ZW 1023,0 50
11.08.2018 21:00:00 17,0 3,8 4 2 18 10 W 1022,2 45
11.08.2018 20:00:00 18,5 4,4 7 4 - - WNW 1022,0 40
11.08.2018 19:00:00 19,1 4,7 11 6 25 14 W 1022,1 40
11.08.2018 18:00:00 18,9 4,9 11 6 29 16 NW 1022,2 40
11.08.2018 17:00:00 18,7 4,2 14 8 - - WNW 1022,5 35
11.08.2018 16:00:00 18,8 5,0 14 8 29 16 NW 1022,7 30
11.08.2018 15:00:00 18,1 5,7 7 4 25 14 NW 1023,3 28
11.08.2018 14:00:00 18,1 7,2 14 8 - - W 1023,5 29
11.08.2018 13:00:00 17,3 7,3 14 8 25 14 W 1023,6 35
11.08.2018 12:00:00 15,6 7,1 14 8 25 14 W 1024,1 35
11.08.2018 11:00:00 14,9 7,8 11 6 - - NW 1024,2 30
11.08.2018 10:00:00 12,9 8,6 11 6 22 12 W 1024,3 30
11.08.2018 09:00:00 12,2 10,2 11 6 25 14 W 1024,0 24
11.08.2018 08:00:00 11,8 9,3 11 6 - - W 1023,5 18
11.08.2018 07:00:00 11,7 10,2 18 10 29 16 W 1023,1 22
11.08.2018 06:00:00 11,4 8,3 11 6 22 12 WZW 1022,6 25
11.08.2018 05:00:00 11,6 8,4 11 6 - - WZW 1022,4 22
11.08.2018 04:00:00 11,9 7,6 14 8 36 19 WZW 1022,3 11
11.08.2018 03:00:00 14,4 6,7 18 10 36 19 WZW 1021,6 45
11.08.2018 02:00:00 14,4 6,0 14 8 - - ZW 1021,7 45
11.08.2018 01:00:00 13,6 5,4 14 8 22 12 Z 1022,0 45
11.08.2018 00:00:00 14,1 5,0 14 8 25 14 Z 1021,9 45
10.08.2018 23:00:00 14,9 4,8 14 8 - - ZZW 1021,8 50
10.08.2018 22:00:00 15,2 4,4 11 6 22 12 Z 1022,1 45
10.08.2018 21:00:00 16,3 3,9 14 8 25 14 ZZW 1021,8 45
10.08.2018 20:00:00 17,3 3,4 14 8 - - ZW 1021,7 45
10.08.2018 19:00:00 18,6 4,1 18 10 36 19 ZW 1021,4 45
10.08.2018 18:00:00 18,3 4,3 22 12 36 19 ZW 1021,8 40
10.08.2018 17:00:00 19,2 4,6 25 14 - - ZW 1021,8 35
10.08.2018 16:00:00 18,2 2,8 14 8 43 23 WZW 1022,3 35
10.08.2018 15:00:00 18,7 3,5 22 12 43 23 WZW 1022,4 30
10.08.2018 14:00:00 16,8 4,8 25 14 - - ZW 1023,1 40
10.08.2018 13:00:00 17,1 6,0 18 10 40 21 ZW 1023,2 35
10.08.2018 12:00:00 15,7 7,2 22 12 36 19 ZW 1023,4 35
10.08.2018 11:00:00 13,6 7,5 14 8 - - WZW 1023,5 40
10.08.2018 10:00:00 14,4 9,6 18 10 29 16 ZW 1023,1 22
10.08.2018 09:00:00 12,5 9,5 14 8 32 18 ZW 1023,0 21
10.08.2018 08:00:00 11,5 8,2 14 8 - - ZZW 1022,8 23
10.08.2018 07:00:00 11,4 10,2 14 8 25 14 ZZW 1022,4 23
10.08.2018 06:00:00 11,7 8,7 14 8 25 14 ZW 1021,9 25
10.08.2018 05:00:00 11,6 9,8 14 8 - - WZW 1021,4 24
10.08.2018 04:00:00 11,3 9,8 11 6 25 14 WZW 1021,2 24
10.08.2018 03:00:00 11,7 8,9 14 8 29 16 WZW 1020,7 35
10.08.2018 02:00:00 11,9 9,3 14 8 - - WZW 1020,0 29
10.08.2018 01:00:00 12,1 10,4 18 10 40 21 W 1018,9 24
10.08.2018 00:00:00 12,5 10,2 18 10 43 23 W 1017,8 10
09.08.2018 23:00:00 13,2 10,6 14 8 - - W 1016,4 45
09.08.2018 22:00:00 14,3 11,9 25 14 47 25 WZW 1015,0 45
09.08.2018 21:00:00 15,5 12,7 18 10 43 23 WZW 1013,1 30
09.08.2018 20:00:00 16,6 14,1 25 14 - - WZW 1011,9 35
09.08.2018 19:00:00 17,1 14,6 29 16 54 29 ZW 1010,9 13
09.08.2018 18:00:00 19,7 15,5 25 14 43 23 Z 1009,4 35
09.08.2018 17:00:00 19,8 15,6 22 12 - - Z 1008,8 30
09.08.2018 16:00:00 20,0 16,6 22 12 43 23 ZZW 1008,9 26
09.08.2018 15:00:00 19,9 - - - - - - - 11
09.08.2018 14:00:00 21,1 14,8 18 10 - - Z 1008,5 13
09.08.2018 13:00:00 23,0 16,0 22 12 36 19 ZZO 1008,0 30
09.08.2018 12:00:00 23,0 17,9 18 10 32 18 ZO 1008,1 20
09.08.2018 11:00:00 20,8 15,1 11 6 - - OZO 1009,9 17
09.08.2018 10:00:00 19,8 13,5 14 8 32 18 ZZO 1011,5 16
09.08.2018 09:00:00 20,7 14,3 22 12 32 18 ZO 1011,1 28
09.08.2018 08:00:00 18,1 12,6 22 12 - - ZO 1012,5 29
09.08.2018 07:00:00 16,6 11,6 18 10 32 18 ZO 1013,4 22
09.08.2018 06:00:00 16,3 11,1 22 12 32 18 ZO 1014,0 27
09.08.2018 05:00:00 16,4 11,3 14 8 - - ZO 1014,2 35
09.08.2018 04:00:00 15,8 10,5 14 8 18 10 ZO 1015,0 40
09.08.2018 03:00:00 14,8 9,6 4 2 14 8 OZO 1015,8 45
09.08.2018 02:00:00 14,6 9,4 11 6 - - OZO 1016,2 40
09.08.2018 01:00:00 15,3 9,3 7 4 11 6 OZO 1016,4 40
09.08.2018 00:00:00 15,3 9,6 7 4 7 4 O 1016,6 40
08.08.2018 23:00:00 16,0 9,6 4 2 - - O 1016,6 45
08.08.2018 22:00:00 17,2 10,4 4 2 11 6 Z 1016,2 45
08.08.2018 21:00:00 18,8 11,2 4 2 22 12 WNW 1015,2 40
08.08.2018 20:00:00 19,9 11,8 11 6 - - NW 1014,6 35
08.08.2018 19:00:00 20,5 12,5 7 4 25 14 W 1014,4 40
08.08.2018 18:00:00 20,4 12,2 14 8 32 18 WZW 1014,5 30
08.08.2018 17:00:00 20,5 13,2 14 8 - - W 1014,5 30

tt = temperatuur
td = dauwpunt
ff = windsnelheid
fx = windstoten
dd = windrichting
ppp = luchtdruk
vv = zicht

Weerstations in de omgeving